TimeMST,TemperatureF,Dew PointF,Humidity,Sea Level PressureIn,VisibilityMPH,Wind Direction,Wind SpeedMPH,Gust SpeedMPH,PrecipitationIn,Events,Conditions,WindDirDegrees,DateUTC
12:53 AM,35.1,24.1,64,29.94,10.0,Calm,Calm,-,N/A,,Clear,0,2013-11-20 07:53:00
1:53 AM,32.0,21.9,66,29.94,10.0,Calm,Calm,-,N/A,,Clear,0,2013-11-20 08:53:00
2:53 AM,33.1,26.1,75,29.94,10.0,Calm,Calm,-,N/A,,Clear,0,2013-11-20 09:53:00
3:53 AM,30.9,24.1,76,29.93,10.0,Calm,Calm,-,N/A,,Clear,0,2013-11-20 10:53:00
4:53 AM,30.9,24.1,76,29.94,10.0,WSW,3.5,-,N/A,,Clear,240,2013-11-20 11:53:00
5:53 AM,28.0,23.0,81,29.94,10.0,Calm,Calm,-,N/A,,Clear,0,2013-11-20 12:53:00
6:53 AM,26.1,19.9,78,29.96,10.0,Calm,Calm,-,N/A,,Clear,0,2013-11-20 13:53:00
7:53 AM,28.9,21.0,72,29.96,10.0,Calm,Calm,-,N/A,,Clear,0,2013-11-20 14:53:00
8:53 AM,37.0,26.1,65,29.94,10.0,Calm,Calm,-,N/A,,Clear,0,2013-11-20 15:53:00
9:53 AM,39.9,28.0,63,29.93,10.0,Calm,Calm,-,N/A,,Clear,0,2013-11-20 16:53:00
10:53 AM,43.0,28.9,58,29.91,10.0,Calm,Calm,-,N/A,,Mostly Cloudy,0,2013-11-20 17:53:00
11:53 AM,45.0,28.9,53,29.89,10.0,Calm,Calm,-,N/A,,Overcast,0,2013-11-20 18:53:00
12:53 PM,46.0,30.0,54,29.86,10.0,Calm,Calm,-,N/A,,Overcast,0,2013-11-20 19:53:00
1:53 PM,46.0,30.0,54,29.86,10.0,NNW,10.4,-,N/A,,Overcast,330,2013-11-20 20:53:00
2:53 PM,46.9,30.0,52,29.84,10.0,WNW,5.8,-,N/A,,Overcast,300,2013-11-20 21:53:00
3:53 PM,46.0,33.1,61,29.86,10.0,Calm,Calm,-,0.00,Rain,Light Rain,0,2013-11-20 22:53:00
4:53 PM,45.0,37.0,74,29.87,10.0,East,3.5,-,0.00,Rain,Light Rain,100,2013-11-20 23:53:00
5:53 PM,43.0,37.9,82,29.90,10.0,East,3.5,-,0.01,Rain,Light Rain,100,2013-11-21 00:53:00
6:53 PM,42.1,39.0,89,29.92,9.0,Calm,Calm,-,0.02,Rain,Light Rain,0,2013-11-21 01:53:00
7:53 PM,42.1,39.9,92,29.91,10.0,Calm,Calm,-,0.01,Rain,Light Rain,0,2013-11-21 02:53:00
8:53 PM,42.1,39.9,92,29.89,10.0,Calm,Calm,-,0.00,Rain,Light Rain,0,2013-11-21 03:53:00
9:53 PM,42.1,39.9,92,29.88,10.0,Calm,Calm,-,0.01,Rain,Light Rain,0,2013-11-21 04:53:00
10:53 PM,42.1,41.0,96,29.87,10.0,Calm,Calm,-,0.00,Rain,Light Rain,0,2013-11-21 05:53:00
11:53 PM,42.1,39.9,92,29.86,10.0,Calm,Calm,-,0.00,,Overcast,0,2013-11-21 06:53:00